TimeHST,TemperatureF,Dew PointF,Humidity,Sea Level PressureIn,VisibilityMPH,Wind Direction,Wind SpeedMPH,Gust SpeedMPH,PrecipitationIn,Events,Conditions,WindDirDegrees,DateUTC
12:53 AM,71.1,66.9,87,29.94,10.0,WSW,12.7,-,N/A,,Overcast,240,2012-01-27 10:53:00
1:53 AM,70.0,66.0,87,29.94,10.0,WSW,12.7,-,N/A,,Overcast,240,2012-01-27 11:53:00
2:33 AM,69.8,66.2,88,29.93,10.0,SSW,4.6,-,N/A,,Mostly Cloudy,210,2012-01-27 12:33:00
2:53 AM,68.0,64.9,90,29.92,10.0,SW,6.9,-,N/A,,Partly Cloudy,220,2012-01-27 12:53:00
3:53 AM,70.0,66.0,87,29.92,10.0,Calm,Calm,-,N/A,,Clear,0,2012-01-27 13:53:00
4:53 AM,66.0,64.0,93,29.92,10.0,Calm,Calm,-,N/A,,Clear,0,2012-01-27 14:53:00
5:53 AM,66.0,64.0,93,29.94,10.0,WSW,4.6,-,N/A,,Clear,250,2012-01-27 15:53:00
6:53 AM,64.9,63.0,93,29.96,10.0,NW,5.8,-,N/A,,Clear,310,2012-01-27 16:53:00
7:53 AM,66.9,63.0,87,29.98,10.0,West,8.1,-,N/A,,Clear,280,2012-01-27 17:53:00
8:53 AM,70.0,64.9,84,30.01,10.0,West,5.8,-,N/A,,Scattered Clouds,280,2012-01-27 18:53:00
9:53 AM,75.9,69.1,79,30.03,10.0,NE,5.8,-,N/A,,Clear,40,2012-01-27 19:53:00
10:53 AM,77.0,70.0,79,30.03,10.0,NE,4.6,-,N/A,,Clear,50,2012-01-27 20:53:00
11:53 AM,77.0,69.1,76,30.01,10.0,East,4.6,-,N/A,,Clear,90,2012-01-27 21:53:00
12:53 PM,77.0,66.9,71,29.99,10.0,Variable,4.6,-,N/A,,Clear,0,2012-01-27 22:53:00
1:53 PM,77.0,68.0,74,29.98,10.0,East,6.9,-,N/A,,Clear,100,2012-01-27 23:53:00
2:53 PM,78.1,69.1,74,29.97,10.0,East,5.8,-,N/A,,Clear,80,2012-01-28 00:53:00
3:53 PM,77.0,68.0,74,29.97,10.0,East,5.8,-,N/A,,Clear,90,2012-01-28 01:53:00
4:53 PM,77.0,68.0,74,29.99,10.0,ENE,6.9,-,N/A,,Clear,60,2012-01-28 02:53:00
5:53 PM,75.0,68.0,79,30.01,10.0,NNE,5.8,-,N/A,,Scattered Clouds,30,2012-01-28 03:53:00
6:53 PM,73.0,68.0,84,30.04,10.0,North,3.5,-,N/A,,Scattered Clouds,350,2012-01-28 04:53:00
7:53 PM,72.0,66.9,84,30.06,10.0,WNW,3.5,-,N/A,,Scattered Clouds,300,2012-01-28 05:53:00
8:53 PM,70.0,66.9,90,30.07,10.0,WNW,4.6,-,N/A,,Clear,300,2012-01-28 06:53:00
9:53 PM,68.0,64.9,90,30.08,10.0,WNW,5.8,-,N/A,,Clear,290,2012-01-28 07:53:00
10:53 PM,68.0,64.9,90,30.09,10.0,WNW,4.6,-,N/A,,Partly Cloudy,290,2012-01-28 08:53:00
11:53 PM,66.9,64.0,90,30.08,10.0,West,3.5,-,N/A,,Partly Cloudy,260,2012-01-28 09:53:00